Gulfport, MS

11:55 PM CST on December 12, 2017 (GMT -0600)
Gulfport-Biloxi Regional

Weather History for KGPT - March, 2014

Change the Weather History Date:

Thursday, March 13, 2014

  Actual Average Record
Temperature  
Mean Temperature 52 °F -  
Max Temperature 66 °F 70 °F 82 °F (1980)
Min Temperature 39 °F 52 °F 30 °F (1993)
Degree Days  
Heating Degree Days 14    
Growing Degree Days 2 (Base 50)    
Moisture  
Dew Point 35 °F    
Average Humidity 55    
Maximum Humidity 83    
Minimum Humidity 26    
Precipitation  
Precipitation 0.00 in - - ()
Sea Level Pressure  
Sea Level Pressure 30.24 in    
Wind  
Wind Speed 5 mph (NNW)    
Max Wind Speed 10 mph    
Max Gust Speed 17 mph    
Visibility 10 miles    
Events      
Averages and records for this station are not official NWS values.
T = Trace of Precipitation, MM = Missing Value Source: NWS Daily Summary

Daily Weather History Graph

Daily Weather History Graph

Search for Another Location

Airport or City:

Trip Planner

Search our weather history database for the weather conditions in past years. The results will help you decide how hot, cold, wet, or windy it might be!

Date:

Astronomy

Mar. 13, 2014 Rise Set
Actual Time 7:08 AM CDT 7:03 PM CDT
Civil Twilight 6:44 AM CDT 7:27 PM CDT
Nautical Twilight 6:16 AM CDT 7:55 PM CDT
Astronomical Twilight 5:48 AM CDT 8:23 PM CDT
Moon 4:37 PM CDT 5:05 AM CDT
Length of Visible Light 12h 42m
Length of Day
11h 54m
Waxing Gibbous, 91% of the Moon is Illuminated
Mar 13
Waxing Gibbous
Mar 16
Full
Mar 23
Last Quarter
Mar 30
New
Apr 7
First Quarter

Hourly Weather History & Observations

Time (CDT) Temp. Windchill Dew Point Humidity Pressure Visibility Wind Dir Wind Speed Gust Speed Precip Events Conditions
12:53 AM 50.0 °F - 30.9 °F 48% 30.16 in 10.0 mi North 10.4 mph - N/A   Clear
1:53 AM 48.9 °F - 30.9 °F 50% 30.17 in 10.0 mi North 9.2 mph - N/A   Clear
2:53 AM 46.9 °F - 30.9 °F 54% 30.18 in 10.0 mi North 5.8 mph - N/A   Clear
3:53 AM 44.1 °F 42.5 °F 32.0 °F 63% 30.19 in 10.0 mi NNW 3.5 mph - N/A   Clear
4:53 AM 41.0 °F - 34.0 °F 76% 30.21 in 10.0 mi Calm Calm - N/A   Clear
5:53 AM 39.9 °F - 34.0 °F 79% 30.24 in 10.0 mi Calm Calm - N/A   Clear
6:53 AM 39.0 °F - 34.0 °F 82% 30.26 in 10.0 mi Calm Calm - N/A   Clear
7:53 AM 41.0 °F - 35.1 °F 79% 30.28 in 10.0 mi Calm Calm - N/A   Clear
8:53 AM 48.0 °F - 35.1 °F 61% 30.30 in 10.0 mi Calm Calm - N/A   Clear
9:53 AM 53.1 °F - 28.9 °F 40% 30.31 in 10.0 mi ENE 4.6 mph - N/A   Clear
10:53 AM 57.9 °F - 27.0 °F 31% 30.31 in 10.0 mi NNE 9.2 mph - N/A   Clear
11:53 AM 61.0 °F - 27.0 °F 27% 30.30 in 10.0 mi NNE 8.1 mph 17.3 mph N/A   Clear
12:53 PM 63.0 °F - 28.0 °F 27% 30.27 in 10.0 mi NNW 3.5 mph - N/A   Clear
1:53 PM 64.9 °F - 28.9 °F 26% 30.25 in 10.0 mi Variable 5.8 mph - N/A   Clear
2:53 PM 61.0 °F - 37.9 °F 42% 30.23 in 10.0 mi South 10.4 mph 17.3 mph N/A   Clear
3:53 PM 61.0 °F - 37.0 °F 41% 30.21 in 10.0 mi South 10.4 mph - N/A   Clear
4:53 PM 61.0 °F - 36.0 °F 39% 30.21 in 10.0 mi SW 8.1 mph - N/A   Clear
5:53 PM 60.1 °F - 39.0 °F 46% 30.22 in 10.0 mi SSW 9.2 mph - N/A   Clear
6:53 PM 59.0 °F - 37.0 °F 44% 30.23 in 10.0 mi SW 6.9 mph - N/A   Clear
7:53 PM 57.0 °F - 39.0 °F 51% 30.23 in 10.0 mi Calm Calm - N/A   Clear
8:53 PM 52.0 °F - 43.0 °F 71% 30.24 in 10.0 mi Calm Calm - N/A   Clear
9:53 PM 50.0 °F - 42.1 °F 74% 30.24 in 10.0 mi Calm Calm - N/A   Clear
10:53 PM 48.9 °F - 43.0 °F 80% 30.23 in 10.0 mi Calm Calm - N/A   Clear
11:53 PM 46.9 °F - 42.1 °F 83% 30.23 in 10.0 mi Calm Calm - N/A   Clear